Terug naar catalogus

FENGYUN 1C DEB

ActiefPO
NORAD 30385·DEBRIS·🇨🇳 China

Gelanceerd May 10, 1999 vanaf Taiyuan Satellite Launch Center

Loading…

Volgende Passages (komende 24 uur)

TLE

VersSource: Space-Track

Epoch: Sep 14, 2026, 14:15 UTC

1 30385U 99025ACY 26257.59384437  .00000418  00000-0  13887-3 0  9992
2 30385  99.0556 299.0620 0124643 197.6865 316.1063 14.39212580 27346

Volg FENGYUN 1C DEB in realtime met AllMySat

Download on the App Store